Tracking 19638 objects as of 19-May-2019
HD Live streaming from Space Station
objects crossing your sky now

SL-8 DEB *

Track SL-8 DEB * now!
10-day predictions


NORAD ID: 14345
Int'l Code: 1979-089C
Perigee: 679.8 km
Apogee: 694.1 km
Inclination: 74.0 °
Period: 98.4 minutes
Semi major axis: 7057 km
RCS: 0.0065 m2 (small)
Launch date: October 11, 1979
Source: Commonwealth of Independent States (former USSR) (CIS)
Launch site: PLESETSK MISSILE AND SPACE COMPLEX (PKMTR)

Note: This is SATELLITE DEBRIS
aabbcc
Your satellite tracking list
Your tracking list is empty




NASA's NSSDC Master Catalog

Two Line Element Set (TLE):
1 14345U 79089C   19137.52914281  .00000308  00000-0  64498-4 0  9999
2 14345  74.0222 288.2255 0010108 260.3439 164.6085 14.64147449898835
Source of the keplerian elements: AFSPC